Location: Pontbriand
(46.1542°N, 71.2542°W)
Time: 12:11:38
(UTC+00:00)

Envisat - Pass Details

Date: 07 December 2021
Orbit: 764 x 766 km, 98.2° (Epoch: 20 January)

Event Time Altitude Azimuth Distance (km) Brightness Sun altitude
Rises 21:37:21 0° 192° (SSW) 3,219 6.8 -6.6°
Reaches altitude 10° 21:39:53 10° 202° (SSW) 2,298 6.3 -7.0°
Maximum altitude 21:44:22 32° 265° (W) 1,310 5.1 -7.7°
Drops below altitude 10° 21:48:54 10° 328° (NNW) 2,313 5.6 -8.4°
Sets 21:51:28 0° 338° (NNW) 3,245 6.2 -8.8°
